地球静止运行环境卫星 9星 (GOES 9)

导读 | 星芒AI

GOES 9 是美国国家气象局(NOAA)于1995年发射的地球静止气象卫星,属于GOES系列。它主要用于监测北美、中美洲和部分太平洋地区的天气变化,提供云图、闪电数据和气象预警。GOES 9 搭载了先进的可见光和红外传感器,支持气象预报和灾害监测。尽管已退役,它在服役期间为天气预测和气候研究提供了重要数据支持。

基本信息
目录编号:
23581
目录名称:
GOES 9
国际标识:
1995-025A
轨道中心:
EARTH
卫星名称:
地球静止运行环境卫星 9星
卫星全名:
地球静止运行环境卫星 9星 (GOES 9)
卫星状态:
在轨 (已飞行11117 天)
发射日期:
1995-05-23 UTC
国别 :
美国 (US)
星等 :
--
轨道信息
数据来源 国际轨道数据 AOE轨道数据
星历时间 2025-10-28T19:06:08+0800
20小时前
查看轨道信息
2025-10-24T14:00:00+0800
5天前
查看轨道信息
半长轴 42582.9km 42583.044km
偏心率 0.0008179 0.0008393
轨道倾角 13.756° 13.752°
近地点辐角 186.993° 183.735°
升交点赤经 16.221° 16.248°
平近点角 233.145° 178.055°
近地点 36169.936km 36169.169km
远地点 36239.594km 36240.649km
周期 1457.513分钟 1457.521分钟
每日圈数 0.987984 0.987979
详细信息
卫星平台:
LS-1300
平衡模式:
三轴稳定
覆盖范围:
全球
制造商(研发单位):
劳拉空间系统公司
制造商所在国:
美国
使用方式:
暂无
卫星简介
地球静止环境业务卫星是美国国家海洋和大气管理局(NOAA)与美国国家航空航天局(NASA)共同发展的民用静止轨道气象系列卫星。[1]美国第一代地球静止轨道气象卫星系列。英文缩写为GOES。该卫星已退役。
2D轨道图
3D轨道图
轨道高度分析图
轨道倾角分析图
轨道综合分析图
查看轨道综合分析图